Location: Sungai Bunut
(2.6333°N, 113.7333°E)
Time: 17:18:13
(UTC+00:00)

Tiros 1 despin weight - Pass Details

Date: 05 December 2023
Orbit: 581 x 624 km, 48.2° (Epoch: 03 March)

Event Time Altitude Azimuth Distance (km) Brightness Sun altitude
Rises 19:29:53 0° 304° (NW) 2,827 - -39.0°
Reaches altitude 10° 19:32:20 10° 295° (WNW) 1,935 - -38.4°
Maximum altitude 19:36:19 32° 231° (SW) 1,040 - -37.5°
Drops below altitude 10° 19:40:22 10° 167° (SSE) 1,968 - -36.6°
Exits shadow 19:40:45 - 165° (SSE) 2,105 ? -36.5°
Sets 19:42:52 0° 157° (SSE) 2,883 ? -36.1°
